IBE0154 SKBO-LEMD

Flight info

Callsign IBE0154
Flight time N/A
Altitude 37000
Route OSUSU4R AKROB DCT MAVDA DCT KIKAS UP533 IMBAT UP671 MIQ UN669 ELJEZ/M085F390 DCT 22N050W 26N040W 3030N03000W/M085F410 35N020W DCT LUTAK/N0487F400 DCT TOFEF DCT OGERO Z409 TLD
Aircraft A359/H-SDE2E3GHIJ3J4J5LM1ORWXY/LB1D1

Departure

Time 2026-05-04 06:44
Airport El Dorado International Airport (SKBO)

Arrival

Time N/A
Airport Adolfo Suárez Madrid–Barajas Airport (LEMD)
Time Latitude Longitude Altitude Speed Heading
2026-05-04 06:13 4.70102 -74.14274 8379 ft 0 kts 198°
2026-05-04 06:31 4.70109 -74.14272 8379 ft 4 kts 198°
2026-05-04 06:32 4.70135 -74.14264 8404 ft 4 kts 198°
2026-05-04 06:33 4.70124 -74.14166 8377 ft 0 kts 307°
2026-05-04 06:36 4.70125 -74.14167 8377 ft 1 kts 307°
2026-05-04 06:37 4.70145 -74.14193 8376 ft 9 kts 307°
2026-05-04 06:37 4.70175 -74.14227 8376 ft 2 kts 335°
2026-05-04 06:37 4.70198 -74.14221 8378 ft 7 kts 14°
2026-05-04 06:37 4.70266 -74.14237 8376 ft 11 kts 321°
2026-05-04 06:38 4.70314 -74.14298 8375 ft 12 kts 307°
2026-05-04 06:38 4.70371 -74.14347 8376 ft 10 kts 351°
2026-05-04 06:40 4.70945 -74.15021 8375 ft 23 kts 307°
2026-05-04 06:40 4.71035 -74.15138 8376 ft 19 kts 308°
2026-05-04 06:40 4.71108 -74.15232 8377 ft 15 kts 308°
2026-05-04 06:40 4.71165 -74.15299 8375 ft 10 kts 326°
2026-05-04 06:41 4.71236 -74.15294 8375 ft 13 kts 33°
2026-05-04 06:41 4.71315 -74.15213 8373 ft 14 kts 51°
2026-05-04 06:41 4.71309 -74.15172 8375 ft 0 kts 126°
2026-05-04 06:42 4.71299 -74.15157 8376 ft 17 kts 126°
2026-05-04 06:42 4.71099 -74.14892 8370 ft 77 kts 128°
2026-05-04 06:42 4.70660 -74.14316 8375 ft 130 kts 127°
2026-05-04 06:44 4.71979 -74.08295 10978 ft 239 kts
2026-05-04 06:44 4.73697 -74.08202 11189 ft 254 kts
2026-05-04 06:44 4.75429 -74.07809 11530 ft 257 kts 23°
2026-05-04 06:45 4.77064 -74.07100 12079 ft 256 kts 28°
2026-05-04 06:45 4.78695 -74.06373 12639 ft 259 kts 22°
2026-05-04 06:45 4.80442 -74.05794 12706 ft 272 kts 20°
2026-05-04 06:45 4.82298 -74.05208 12976 ft 286 kts 20°
2026-05-04 06:46 4.84240 -74.04580 13240 ft 300 kts 21°
2026-05-04 06:46 4.86268 -74.03913 13502 ft 314 kts 21°
2026-05-04 06:46 4.88388 -74.03203 13786 ft 327 kts 21°
2026-05-04 06:46 4.90587 -74.02461 14060 ft 339 kts 21°
2026-05-04 06:48 5.08096 -73.97023 15674 ft 405 kts 15°
2026-05-04 06:48 5.10819 -73.96379 16045 ft 408 kts 15°
2026-05-04 06:49 5.13582 -73.95711 16335 ft 411 kts 15°
2026-05-04 06:50 5.27714 -73.84220 17650 ft 407 kts 77°
2026-05-04 06:51 5.28389 -73.81453 18021 ft 409 kts 77°
2026-05-04 06:51 5.29070 -73.78681 18398 ft 411 kts 77°
2026-05-04 06:51 5.29760 -73.75889 18672 ft 414 kts 77°
2026-05-04 06:51 5.30457 -73.73078 18942 ft 416 kts 76°
2026-05-04 06:52 5.31160 -73.70255 19273 ft 417 kts 76°
2026-05-04 06:52 5.31865 -73.67427 19603 ft 419 kts 76°
2026-05-04 06:52 5.32574 -73.64587 19881 ft 421 kts 77°
2026-05-04 06:52 5.33287 -73.61727 20140 ft 423 kts 76°
2026-05-04 06:53 5.34002 -73.58863 20509 ft 423 kts 76°
2026-05-04 06:53 5.34718 -73.55990 20754 ft 427 kts 76°
2026-05-04 06:53 5.35439 -73.53098 21084 ft 427 kts 76°
2026-05-04 06:53 5.36163 -73.50194 21351 ft 431 kts 76°
2026-05-04 06:54 5.36891 -73.47272 21664 ft 432 kts 76°
2026-05-04 06:54 5.37673 -73.44356 21970 ft 434 kts 72°
2026-05-04 06:54 5.38847 -73.41552 22232 ft 437 kts 62°
2026-05-04 06:54 5.40354 -73.38902 22568 ft 439 kts 59°
2026-05-04 06:55 5.41993 -73.36298 22855 ft 442 kts 58°
2026-05-04 06:55 5.43690 -73.33722 23139 ft 444 kts 57°
2026-05-04 06:55 5.45412 -73.31139 23452 ft 445 kts 57°
2026-05-04 06:55 5.47133 -73.28549 23702 ft 449 kts 57°
2026-05-04 06:56 5.48865 -73.25915 23859 ft 453 kts 57°
2026-05-04 06:57 5.61048 -73.07086 25740 ft 466 kts 57°
2026-05-04 06:58 5.62816 -73.04347 26022 ft 469 kts 57°
2026-05-04 06:58 5.64595 -73.01591 26334 ft 471 kts 57°
2026-05-04 06:58 5.66433 -72.98909 26599 ft 474 kts 52°
2026-05-04 06:58 5.68625 -72.96430 26920 ft 476 kts 44°
2026-05-04 06:59 5.71135 -72.94243 27214 ft 479 kts 40°
2026-05-04 06:59 5.73763 -72.92174 27557 ft 481 kts 38°
2026-05-04 06:59 5.76452 -72.90151 27857 ft 484 kts 37°
2026-05-04 06:59 5.79176 -72.88143 28114 ft 488 kts 37°
2026-05-04 07:01 5.98645 -72.73720 29947 ft 505 kts 37°
2026-05-04 07:01 6.01474 -72.71609 30186 ft 507 kts 37°
2026-05-04 07:02 6.04310 -72.69492 30425 ft 508 kts 37°
2026-05-04 07:02 6.07144 -72.67377 30743 ft 507 kts 37°
2026-05-04 07:02 6.09969 -72.65269 31086 ft 505 kts 37°
2026-05-04 07:02 6.12788 -72.63166 31385 ft 505 kts 37°
2026-05-04 07:03 6.15604 -72.61064 31671 ft 504 kts 37°
2026-05-04 07:03 6.18417 -72.58964 31979 ft 503 kts 37°
2026-05-04 07:03 6.21226 -72.56866 32235 ft 503 kts 37°
2026-05-04 07:03 6.24031 -72.54772 32505 ft 502 kts 37°
2026-05-04 07:04 6.26831 -72.52681 32820 ft 501 kts 37°
2026-05-04 07:04 6.29627 -72.50592 33077 ft 501 kts 37°
2026-05-04 07:04 6.32422 -72.48505 33359 ft 500 kts 37°
2026-05-04 07:04 6.35215 -72.46419 33617 ft 500 kts 37°
2026-05-04 07:05 6.37999 -72.44338 33881 ft 499 kts 37°
2026-05-04 07:05 6.40784 -72.42257 34152 ft 498 kts 37°
2026-05-04 07:05 6.43566 -72.40177 34371 ft 498 kts 37°
2026-05-04 07:05 6.46343 -72.38101 34559 ft 498 kts 37°
2026-05-04 07:06 6.51898 -72.33947 34964 ft 497 kts 37°
2026-05-04 07:06 6.54675 -72.31870 35077 ft 499 kts 37°
2026-05-04 07:06 6.57469 -72.29780 35186 ft 500 kts 37°
2026-05-04 07:07 6.60258 -72.27694 35415 ft 499 kts 37°
2026-05-04 07:08 6.79621 -72.13202 36663 ft 495 kts 37°
2026-05-04 07:09 6.82382 -72.11134 36760 ft 495 kts 37°
2026-05-04 07:09 6.85143 -72.09065 36925 ft 494 kts 37°
2026-05-04 07:09 6.87905 -72.06997 36979 ft 496 kts 37°
2026-05-04 07:10 6.93468 -72.02828 36966 ft 500 kts 37°
2026-05-04 07:12 7.13630 -71.83726 36971 ft 499 kts 48°
2026-05-04 07:12 7.18333 -71.78591 36971 ft 498 kts 47°
2026-05-04 07:13 7.23042 -71.73467 36968 ft 499 kts 47°
2026-05-04 07:13 7.27757 -71.68342 36966 ft 499 kts 47°
2026-05-04 07:14 7.39557 -71.55515 36963 ft 499 kts 47°
2026-05-04 07:15 7.44273 -71.50385 36963 ft 499 kts 48°
2026-05-04 07:15 7.48983 -71.45259 36963 ft 499 kts 47°
2026-05-04 07:16 7.53698 -71.40125 36966 ft 499 kts 47°
2026-05-04 07:16 7.58409 -71.34994 36966 ft 500 kts 47°
2026-05-04 07:17 7.63144 -71.29836 36977 ft 501 kts 47°
2026-05-04 07:17 7.67881 -71.24674 36968 ft 502 kts 47°
2026-05-04 07:18 7.72587 -71.19543 36969 ft 502 kts 47°
2026-05-04 07:18 7.77323 -71.14378 36972 ft 502 kts 47°
2026-05-04 07:19 7.82063 -71.09207 36974 ft 502 kts 47°
2026-05-04 07:19 7.86797 -71.04041 36974 ft 502 kts 47°
2026-05-04 07:20 7.91532 -70.98871 36978 ft 502 kts 47°
2026-05-04 07:20 7.96279 -70.93686 36977 ft 503 kts 47°
2026-05-04 07:22 8.15232 -70.72967 36963 ft 501 kts 47°
2026-05-04 07:23 8.19962 -70.67792 36974 ft 501 kts 47°
2026-05-04 07:23 8.23889 -70.63494 36975 ft 501 kts 47°
2026-05-04 07:24 8.28621 -70.58312 36955 ft 502 kts 47°
2026-05-04 07:24 8.33355 -70.53126 36973 ft 502 kts 47°
2026-05-04 07:26 8.52256 -70.32404 36950 ft 501 kts 47°
2026-05-04 07:27 8.56978 -70.27222 36964 ft 501 kts 47°
2026-05-04 07:27 8.61707 -70.22030 36963 ft 503 kts 47°
2026-05-04 07:28 8.66359 -70.16816 36949 ft 502 kts 48°
2026-05-04 07:28 8.70970 -70.11515 36963 ft 502 kts 48°
2026-05-04 07:29 8.75581 -70.06222 36947 ft 502 kts 48°
2026-05-04 07:29 8.80205 -70.00937 36947 ft 502 kts 48°
2026-05-04 07:30 8.84830 -69.95659 36966 ft 502 kts 48°
2026-05-04 07:30 8.89458 -69.90378 36949 ft 502 kts 48°
2026-05-04 07:31 8.94016 -69.85171 36951 ft 503 kts 47°
2026-05-04 07:33 9.12556 -69.63977 36950 ft 503 kts 47°
2026-05-04 07:33 9.17189 -69.58675 36950 ft 503 kts 47°
2026-05-04 07:34 9.21820 -69.53372 36950 ft 503 kts 47°
2026-05-04 07:34 9.26455 -69.48064 36957 ft 504 kts 47°
2026-05-04 07:35 9.31102 -69.42738 36952 ft 505 kts 47°
2026-05-04 07:35 9.35748 -69.37411 36956 ft 505 kts 47°
2026-05-04 07:36 9.40397 -69.32079 36956 ft 505 kts 47°
2026-05-04 07:38 9.58973 -69.10750 36951 ft 505 kts 47°
2026-05-04 07:38 9.63587 -69.05446 36959 ft 505 kts 47°
2026-05-04 07:39 9.68237 -69.00108 36956 ft 505 kts 47°
2026-05-04 07:39 9.72880 -68.94771 36958 ft 505 kts 47°
2026-05-04 07:40 9.77525 -68.89429 36969 ft 505 kts 47°
2026-05-04 07:40 9.82169 -68.84086 36965 ft 505 kts 47°
2026-05-04 07:41 9.86809 -68.78747 36969 ft 504 kts 48°
2026-05-04 07:41 9.91442 -68.73414 36986 ft 504 kts 47°
2026-05-04 07:42 9.96073 -68.68080 36991 ft 504 kts 47°
2026-05-04 07:42 10.00706 -68.62742 36989 ft 504 kts 47°
2026-05-04 07:43 10.05347 -68.57400 36994 ft 504 kts 47°
2026-05-04 07:43 10.09985 -68.52070 36998 ft 504 kts 47°
2026-05-04 07:44 10.14621 -68.46739 36993 ft 503 kts 47°
2026-05-04 07:44 10.19251 -68.41412 36992 ft 503 kts 47°
2026-05-04 07:45 10.23882 -68.36081 36991 ft 503 kts 47°
2026-05-04 07:45 10.28482 -68.30784 36985 ft 503 kts 47°
2026-05-04 07:46 10.33107 -68.25454 36984 ft 503 kts 48°
2026-05-04 07:46 10.37737 -68.20118 36984 ft 503 kts 47°
2026-05-04 07:47 10.42360 -68.14786 36980 ft 502 kts 48°
2026-05-04 07:49 10.60771 -67.93454 36971 ft 503 kts 53°
2026-05-04 07:49 10.64011 -67.87183 36957 ft 504 kts 71°
2026-05-04 07:50 10.64828 -67.83722 36961 ft 504 kts 82°
2026-05-04 07:50 10.65055 -67.80168 36969 ft 504 kts 90°
2026-05-04 07:50 10.64820 -67.73034 36962 ft 506 kts 93°
2026-05-04 07:51 10.64404 -67.65943 36964 ft 506 kts 93°
2026-05-04 07:51 10.63996 -67.58754 36963 ft 506 kts 93°
2026-05-04 07:52 10.63628 -67.51657 36972 ft 506 kts 92°
2026-05-04 07:52 10.63270 -67.44514 36972 ft 506 kts 92°
2026-05-04 07:54 10.61822 -67.15924 36971 ft 507 kts 92°
2026-05-04 07:55 10.61454 -67.08753 36966 ft 508 kts 92°
2026-05-04 07:55 10.61627 -67.01594 36966 ft 507 kts 79°
2026-05-04 07:56 10.63847 -66.94850 36965 ft 504 kts 60°
2026-05-04 07:56 10.67564 -66.88819 36969 ft 504 kts 55°
2026-05-04 07:57 10.71521 -66.82945 36969 ft 503 kts 54°
2026-05-04 07:57 10.75487 -66.77075 36973 ft 503 kts 54°
2026-05-04 07:58 10.79423 -66.71182 36979 ft 504 kts 54°
2026-05-04 07:58 10.83350 -66.65268 36963 ft 505 kts 54°
2026-05-04 07:59 10.87273 -66.59346 36966 ft 505 kts 54°
2026-05-04 07:59 10.91197 -66.53422 36966 ft 504 kts 54°
2026-05-04 08:00 10.95116 -66.47504 36966 ft 504 kts 54°
2026-05-04 08:02 11.10903 -66.23967 36968 ft 504 kts 53°
2026-05-04 08:02 11.14907 -66.18094 36965 ft 505 kts 53°
2026-05-04 08:03 11.18903 -66.12218 36964 ft 505 kts 53°
2026-05-04 08:03 11.22897 -66.06329 36964 ft 505 kts 53°
2026-05-04 08:04 11.26888 -66.00444 36968 ft 505 kts 53°
2026-05-04 08:04 11.30882 -65.94556 36966 ft 505 kts 53°
2026-05-04 08:05 11.34870 -65.88669 36970 ft 505 kts 53°
2026-05-04 08:05 11.38855 -65.82783 36967 ft 504 kts 53°
2026-05-04 08:06 11.42836 -65.76899 36967 ft 504 kts 53°
2026-05-04 08:06 11.46791 -65.71059 36967 ft 504 kts 53°
2026-05-04 08:08 11.62689 -65.47489 36967 ft 504 kts 53°
2026-05-04 08:11 11.80819 -65.21080 36974 ft 505 kts 52°
2026-05-04 08:11 11.86886 -65.12292 36973 ft 505 kts 52°
2026-05-04 08:12 11.90927 -65.06433 36976 ft 505 kts 52°
2026-05-04 08:12 11.94969 -65.00569 36981 ft 505 kts 52°
2026-05-04 08:13 11.99001 -64.94715 36976 ft 504 kts 52°
2026-05-04 08:13 12.03010 -64.88892 36981 ft 504 kts 52°
2026-05-04 08:14 12.07041 -64.83033 36981 ft 504 kts 52°
2026-05-04 08:16 12.22508 -64.60521 36981 ft 504 kts 52°
2026-05-04 08:16 12.26537 -64.54648 36983 ft 504 kts 52°
2026-05-04 08:17 12.30562 -64.48778 36981 ft 504 kts 52°
2026-05-04 08:17 12.34588 -64.42903 36972 ft 504 kts 52°
2026-05-04 08:19 12.50517 -64.19317 36983 ft 505 kts 52°
2026-05-04 08:20 12.54498 -64.13407 36988 ft 504 kts 52°
2026-05-04 08:20 12.58481 -64.07491 36994 ft 504 kts 52°
2026-05-04 08:21 12.62458 -64.01581 36992 ft 504 kts 52°
2026-05-04 08:21 12.66439 -63.95661 36992 ft 504 kts 52°
2026-05-04 08:22 12.70413 -63.89746 36992 ft 504 kts 52°
2026-05-04 08:24 12.86328 -63.66070 36993 ft 503 kts 50°
2026-05-04 08:24 12.90686 -63.60467 36995 ft 502 kts 48°
2026-05-04 08:25 12.95121 -63.54934 36998 ft 502 kts 47°
2026-05-04 08:25 12.99541 -63.49448 37000 ft 502 kts 47°
2026-05-04 08:27 13.17284 -63.27329 37001 ft 502 kts 47°
2026-05-04 08:28 13.21715 -63.21794 37006 ft 502 kts 47°
2026-05-04 08:28 13.26147 -63.16252 37004 ft 502 kts 47°
2026-05-04 08:29 13.30578 -63.10710 37000 ft 502 kts 47°
2026-05-04 08:31 13.48279 -62.88533 37008 ft 502 kts 47°
2026-05-04 08:33 13.65966 -62.66315 37015 ft 502 kts 47°
2026-05-04 08:35 13.83631 -62.44067 37014 ft 502 kts 47°
2026-05-04 08:35 13.88045 -62.38499 37017 ft 502 kts 47°
2026-05-04 08:37 14.03482 -62.18995 37019 ft 502 kts 47°
2026-05-04 08:38 14.07894 -62.13412 37018 ft 502 kts 47°
2026-05-04 08:38 14.12304 -62.07828 37018 ft 502 kts 47°
2026-05-04 08:40 14.29901 -61.85509 37023 ft 503 kts 48°
2026-05-04 08:41 14.34305 -61.79914 37021 ft 503 kts 48°
2026-05-04 08:41 14.38712 -61.74310 37024 ft 503 kts 48°
2026-05-04 08:42 14.43114 -61.68709 37021 ft 503 kts 48°
2026-05-04 08:42 14.47516 -61.63104 37026 ft 503 kts 48°
2026-05-04 08:43 14.51916 -61.57499 37023 ft 502 kts 48°
2026-05-04 08:43 14.56311 -61.51895 37023 ft 502 kts 48°
2026-05-04 08:44 14.60703 -61.46292 37023 ft 502 kts 48°
2026-05-04 08:46 14.78275 -61.23834 37026 ft 503 kts 48°
2026-05-04 08:46 14.82666 -61.18211 37033 ft 503 kts 48°
2026-05-04 08:47 14.87053 -61.12589 37030 ft 503 kts 49°
2026-05-04 08:47 14.91443 -61.06962 37039 ft 503 kts 49°
2026-05-04 08:48 14.95799 -61.01370 37042 ft 503 kts 49°
2026-05-04 08:48 15.00185 -60.95737 37038 ft 503 kts 49°
2026-05-04 08:49 15.04569 -60.90101 37045 ft 503 kts 49°
2026-05-04 08:50 15.19903 -60.70361 37042 ft 503 kts 49°
2026-05-04 08:51 15.24282 -60.64714 37039 ft 503 kts 49°
2026-05-04 08:51 15.28657 -60.59067 37039 ft 502 kts 49°
2026-05-04 08:52 15.33021 -60.53431 37041 ft 501 kts 49°
2026-05-04 08:52 15.37352 -60.47835 37042 ft 501 kts 49°
2026-05-04 08:54 15.54773 -60.25280 37048 ft 500 kts 49°
2026-05-04 08:55 15.59118 -60.19642 37043 ft 500 kts 49°
2026-05-04 08:55 15.63457 -60.14009 37046 ft 500 kts 49°
2026-05-04 09:01 16.08888 -59.54773 37052 ft 498 kts 49°
2026-05-04 09:01 16.13189 -59.49141 37051 ft 497 kts 49°
2026-05-04 09:02 16.17491 -59.43503 37051 ft 497 kts 49°
2026-05-04 09:02 16.21789 -59.37867 37051 ft 497 kts 49°
2026-05-04 09:03 16.26084 -59.32228 37050 ft 497 kts 49°
2026-05-04 09:03 16.29653 -59.27540 37050 ft 497 kts 49°
2026-05-04 09:04 16.34636 -59.20989 37055 ft 496 kts 49°
2026-05-04 09:04 16.38914 -59.15360 37054 ft 496 kts 49°
2026-05-04 09:05 16.42496 -59.10644 37059 ft 496 kts 49°
2026-05-04 09:05 16.46770 -59.05013 37057 ft 495 kts 49°
2026-05-04 09:06 16.51047 -58.99375 37060 ft 496 kts 49°
2026-05-04 09:07 16.65929 -58.79714 37531 ft 490 kts 49°
2026-05-04 09:08 16.68033 -58.76929 37761 ft 489 kts 49°
2026-05-04 09:08 16.70136 -58.74146 37947 ft 488 kts 49°
2026-05-04 09:08 16.72232 -58.71370 38146 ft 487 kts 49°
2026-05-04 09:08 16.74326 -58.68596 38297 ft 487 kts 49°
2026-05-04 09:09 16.76421 -58.65820 38455 ft 486 kts 49°
2026-05-04 09:09 16.78509 -58.63052 38614 ft 486 kts 49°
2026-05-04 09:09 16.80597 -58.60283 38775 ft 484 kts 49°
2026-05-04 09:09 16.82674 -58.57527 38935 ft 483 kts 49°
2026-05-04 09:10 16.84751 -58.54770 39045 ft 483 kts 49°
2026-05-04 09:10 16.88919 -58.49236 39061 ft 486 kts 49°
2026-05-04 09:11 16.93099 -58.43681 39063 ft 486 kts 49°
2026-05-04 09:11 16.97276 -58.38125 39062 ft 486 kts 49°
2026-05-04 09:12 17.01450 -58.32567 39063 ft 486 kts 49°
2026-05-04 09:14 17.18101 -58.10355 39064 ft 485 kts 49°
2026-05-04 09:14 17.22261 -58.04794 39064 ft 485 kts 49°
2026-05-04 09:15 17.26417 -57.99235 39067 ft 485 kts 49°
2026-05-04 09:15 17.30571 -57.93672 39066 ft 484 kts 49°
2026-05-04 09:17 17.49168 -57.68717 39069 ft 484 kts 49°
2026-05-04 09:18 17.53303 -57.63156 39079 ft 483 kts 49°
2026-05-04 09:18 17.57424 -57.57608 39079 ft 482 kts 49°
2026-05-04 09:19 17.61543 -57.52059 39078 ft 482 kts 49°
2026-05-04 09:19 17.65661 -57.46508 39066 ft 482 kts 49°
2026-05-04 09:20 17.69778 -57.40953 39067 ft 482 kts 49°
2026-05-04 09:20 17.73892 -57.35392 39071 ft 482 kts 49°
2026-05-04 09:21 17.77993 -57.29848 39091 ft 481 kts 49°
2026-05-04 09:21 17.82097 -57.24294 39076 ft 481 kts 50°
2026-05-04 09:22 17.86192 -57.18749 39075 ft 481 kts 50°
2026-05-04 09:22 17.90288 -57.13196 39091 ft 481 kts 50°
2026-05-04 09:23 17.94379 -57.07648 39077 ft 481 kts 50°
2026-05-04 09:23 17.98471 -57.02093 39079 ft 481 kts 50°
2026-05-04 09:25 18.12983 -56.78528 39084 ft 481 kts 55°
2026-05-04 09:26 18.16564 -56.72583 39084 ft 481 kts 55°
2026-05-04 09:26 18.20148 -56.66632 39091 ft 481 kts 55°
2026-05-04 09:27 18.23731 -56.60678 39089 ft 481 kts 55°
2026-05-04 09:27 18.27311 -56.54724 39091 ft 481 kts 55°
2026-05-04 09:28 18.30887 -56.48769 39090 ft 482 kts 55°
2026-05-04 09:28 18.34464 -56.42808 39090 ft 482 kts 55°
2026-05-04 09:29 18.38040 -56.36844 39089 ft 482 kts 55°
2026-05-04 09:29 18.41610 -56.30882 39093 ft 481 kts 55°
2026-05-04 09:30 18.45178 -56.24920 39095 ft 481 kts 55°
2026-05-04 09:30 18.48741 -56.18958 39093 ft 481 kts 55°
2026-05-04 09:31 18.52302 -56.12997 39093 ft 481 kts 55°
2026-05-04 09:31 18.55858 -56.07037 39094 ft 481 kts 55°
2026-05-04 09:32 18.59415 -56.01070 39093 ft 481 kts 56°
2026-05-04 09:34 18.73582 -55.77248 39097 ft 480 kts 55°
2026-05-04 09:34 18.77121 -55.71284 39092 ft 479 kts 56°
2026-05-04 09:35 18.80657 -55.65318 39095 ft 479 kts 56°
2026-05-04 09:35 18.84192 -55.59348 39095 ft 479 kts 55°
2026-05-04 09:37 18.98307 -55.35455 39097 ft 479 kts 55°
2026-05-04 09:38 19.01830 -55.29476 39097 ft 479 kts 55°
2026-05-04 09:38 19.05352 -55.23494 39100 ft 479 kts 55°
2026-05-04 09:39 19.08868 -55.17516 39103 ft 479 kts 55°
2026-05-04 09:39 19.12383 -55.11535 39102 ft 479 kts 55°
2026-05-04 09:40 19.15895 -55.05552 39102 ft 479 kts 55°
2026-05-04 09:40 19.19405 -54.99567 39105 ft 479 kts 55°
2026-05-04 09:42 19.33418 -54.75614 39102 ft 478 kts 55°
2026-05-04 09:43 19.36893 -54.69660 39102 ft 479 kts 55°
2026-05-04 09:43 19.40391 -54.63659 39102 ft 479 kts 55°
2026-05-04 09:44 19.43890 -54.57652 39102 ft 479 kts 55°
2026-05-04 09:46 19.57847 -54.33630 39105 ft 479 kts 55°
2026-05-04 09:46 19.61333 -54.27613 39105 ft 479 kts 55°
2026-05-04 09:47 19.64820 -54.21590 39110 ft 479 kts 55°
2026-05-04 09:49 19.78740 -53.97486 39107 ft 479 kts 56°
2026-05-04 09:51 19.90901 -53.76345 39113 ft 479 kts 56°
2026-05-04 09:51 19.94368 -53.70306 39109 ft 479 kts 56°
2026-05-04 09:52 19.97837 -53.64255 39112 ft 479 kts 56°
2026-05-04 09:52 20.00718 -53.59226 39112 ft 479 kts 56°
2026-05-04 09:53 20.04748 -53.52183 39114 ft 479 kts 56°
2026-05-04 09:53 20.07643 -53.47119 39110 ft 478 kts 56°
2026-05-04 09:54 20.11094 -53.41074 39108 ft 478 kts 56°
2026-05-04 09:54 20.14520 -53.35070 39112 ft 478 kts 56°
2026-05-04 09:55 20.17968 -53.29021 39114 ft 478 kts 56°
2026-05-04 09:55 20.21412 -53.22972 39117 ft 478 kts 56°
2026-05-04 09:56 20.24855 -53.16919 39112 ft 478 kts 56°
2026-05-04 09:56 20.28295 -53.10863 39108 ft 478 kts 56°
2026-05-04 09:57 20.31736 -53.04800 39109 ft 478 kts 56°
2026-05-04 09:57 20.35176 -52.98732 39117 ft 478 kts 56°
2026-05-04 09:58 20.38609 -52.92670 39117 ft 478 kts 56°
2026-05-04 09:58 20.42038 -52.86609 39102 ft 477 kts 56°
2026-05-04 10:00 20.55709 -52.62380 39121 ft 476 kts 56°
2026-05-04 10:04 20.79482 -52.19991 39117 ft 475 kts 56°
2026-05-04 10:04 20.82868 -52.13935 39116 ft 474 kts 56°
2026-05-04 10:05 20.86249 -52.07878 39118 ft 474 kts 56°
2026-05-04 10:05 20.89626 -52.01819 39120 ft 474 kts 56°
2026-05-04 10:06 20.92999 -51.95760 39124 ft 474 kts 56°
2026-05-04 10:06 20.96370 -51.89700 39127 ft 474 kts 56°
2026-05-04 10:08 21.08119 -51.68521 39121 ft 472 kts 56°
2026-05-04 10:08 21.11444 -51.62514 39123 ft 472 kts 56°
2026-05-04 10:09 21.14788 -51.56465 39132 ft 472 kts 56°
2026-05-04 10:09 21.18126 -51.50419 39123 ft 471 kts 56°
2026-05-04 10:10 21.21457 -51.44380 39124 ft 471 kts 56°
2026-05-04 10:10 21.24786 -51.38340 39121 ft 471 kts 56°
2026-05-04 10:11 21.28113 -51.32295 39129 ft 471 kts 56°
2026-05-04 10:11 21.31434 -51.26254 39128 ft 470 kts 56°
2026-05-04 10:12 21.34748 -51.20219 39126 ft 470 kts 56°
2026-05-04 10:12 21.38061 -51.14182 39124 ft 470 kts 56°
2026-05-04 10:13 21.41373 -51.08138 39127 ft 470 kts 56°
2026-05-04 10:13 21.44682 -51.02092 39124 ft 470 kts 56°
2026-05-04 10:14 21.47989 -50.96043 39127 ft 470 kts 56°
2026-05-04 10:16 21.61140 -50.71924 39126 ft 468 kts 56°
2026-05-04 10:16 21.64428 -50.65878 39126 ft 468 kts 56°
2026-05-04 10:17 21.67710 -50.59835 39127 ft 468 kts 56°
2026-05-04 10:19 21.80803 -50.35662 39127 ft 468 kts 56°
2026-05-04 10:19 21.84071 -50.29610 39126 ft 467 kts 56°
2026-05-04 10:20 21.87325 -50.23577 39127 ft 466 kts 56°
2026-05-04 10:20 21.90578 -50.17541 39129 ft 466 kts 56°
2026-05-04 10:21 21.93834 -50.11492 39130 ft 467 kts 56°
2026-05-04 10:21 21.97091 -50.05435 39132 ft 467 kts 56°
2026-05-04 10:22 22.01885 -49.96280 39138 ft 469 kts 60°
2026-05-04 10:23 22.04665 -49.89899 39129 ft 471 kts 62°
2026-05-04 10:25 22.15799 -49.64364 39132 ft 472 kts 60°
2026-05-04 10:25 22.18625 -49.57968 39132 ft 472 kts 60°
2026-05-04 10:26 22.21463 -49.51532 39135 ft 472 kts 61°
2026-05-04 10:26 22.24285 -49.45121 39132 ft 473 kts 61°
2026-05-04 10:27 22.27086 -49.38749 39132 ft 473 kts 61°
2026-05-04 10:27 22.29904 -49.32329 39132 ft 473 kts 60°
2026-05-04 10:28 22.32716 -49.25915 39131 ft 473 kts 60°
2026-05-04 10:28 22.35530 -49.19492 39132 ft 473 kts 60°
2026-05-04 10:29 22.38340 -49.13067 39132 ft 473 kts 61°
2026-05-04 10:29 22.41150 -49.06634 39127 ft 473 kts 61°
2026-05-04 10:30 22.43940 -49.00235 39137 ft 470 kts 61°
2026-05-04 10:30 22.46718 -48.93858 39137 ft 468 kts 61°
2026-05-04 10:31 22.49490 -48.87489 39135 ft 468 kts 61°
2026-05-04 10:32 22.59161 -48.65195 39137 ft 467 kts 61°
2026-05-04 10:33 22.61913 -48.58831 39135 ft 467 kts 61°
2026-05-04 10:33 22.64662 -48.52469 39135 ft 467 kts 61°
2026-05-04 10:34 22.67411 -48.46098 39135 ft 467 kts 61°
2026-05-04 10:34 22.70155 -48.39729 39136 ft 467 kts 61°
2026-05-04 10:35 22.72902 -48.33343 39138 ft 467 kts 61°
2026-05-04 10:35 22.75640 -48.26971 39135 ft 466 kts 61°
2026-05-04 10:36 22.78375 -48.20596 39139 ft 466 kts 61°
2026-05-04 10:36 22.81110 -48.14216 39138 ft 467 kts 61°
2026-05-04 10:37 22.83828 -48.07867 39135 ft 467 kts 61°
2026-05-04 10:37 22.86559 -48.01476 39135 ft 467 kts 61°
2026-05-04 10:39 22.96096 -47.79096 39142 ft 467 kts 61°
2026-05-04 10:40 22.98816 -47.72694 39137 ft 468 kts 61°
2026-05-04 10:40 23.01535 -47.66284 39138 ft 467 kts 60°
2026-05-04 10:41 23.04249 -47.59878 39138 ft 467 kts 60°
2026-05-04 10:41 23.06961 -47.53469 39142 ft 467 kts 60°
2026-05-04 10:42 23.09674 -47.47051 39138 ft 468 kts 61°
2026-05-04 10:42 23.12385 -47.40626 39148 ft 468 kts 60°
2026-05-04 10:43 23.14631 -47.35293 39133 ft 467 kts 60°
2026-05-04 10:45 23.25442 -47.09558 39138 ft 469 kts 60°
2026-05-04 10:45 23.28142 -47.03107 39141 ft 468 kts 60°
2026-05-04 10:46 23.30832 -46.96670 39150 ft 468 kts 60°
2026-05-04 10:46 23.33525 -46.90222 39141 ft 469 kts 61°
2026-05-04 10:47 23.36222 -46.83753 39144 ft 469 kts 61°
2026-05-04 10:47 23.38914 -46.77288 39138 ft 469 kts 61°
2026-05-04 10:49 23.49655 -46.51395 39136 ft 470 kts 61°
2026-05-04 10:50 23.52338 -46.44906 39139 ft 469 kts 61°
2026-05-04 10:52 23.63041 -46.18923 39143 ft 470 kts 61°
2026-05-04 10:52 23.65714 -46.12410 39142 ft 470 kts 61°
2026-05-04 10:54 23.76384 -45.86324 39147 ft 471 kts 61°
2026-05-04 10:56 23.87001 -45.60216 39141 ft 471 kts 61°
2026-05-04 10:57 23.89651 -45.53675 39144 ft 471 kts 61°
2026-05-04 10:57 23.92306 -45.47114 39143 ft 472 kts 61°
2026-05-04 10:58 23.94956 -45.40555 39142 ft 472 kts 61°
2026-05-04 10:58 23.97603 -45.33993 39145 ft 472 kts 62°
2026-05-04 10:59 24.00248 -45.27427 39141 ft 472 kts 62°
2026-05-04 10:59 24.02890 -45.20859 39140 ft 473 kts 62°
2026-05-04 11:00 24.05537 -45.14269 39139 ft 473 kts 62°
2026-05-04 11:02 24.16083 -44.87912 39140 ft 473 kts 62°
2026-05-04 11:05 24.35770 -44.38292 39132 ft 475 kts 62°
2026-05-04 11:06 24.38394 -44.31635 39152 ft 476 kts 62°
2026-05-04 11:06 24.40998 -44.25018 39136 ft 476 kts 62°
2026-05-04 11:10 24.59297 -43.78242 39141 ft 477 kts 62°
2026-05-04 11:12 24.69707 -43.51402 39139 ft 477 kts 62°
2026-05-04 11:12 24.72304 -43.44681 39141 ft 478 kts 62°
2026-05-04 11:13 24.74899 -43.37953 39137 ft 478 kts 62°
2026-05-04 11:13 24.77492 -43.31222 39136 ft 478 kts 62°
2026-05-04 11:14 24.80082 -43.24485 39135 ft 478 kts 62°
2026-05-04 11:16 24.90402 -42.97544 39138 ft 479 kts 62°
2026-05-04 11:16 24.92983 -42.90777 39136 ft 479 kts 62°
2026-05-04 11:17 24.95561 -42.84010 39136 ft 479 kts 62°
2026-05-04 11:19 25.05861 -42.56856 39136 ft 481 kts 62°
2026-05-04 11:19 25.08436 -42.50042 39135 ft 481 kts 62°
2026-05-04 11:20 25.11008 -42.43222 39129 ft 481 kts 62°
2026-05-04 11:20 25.13578 -42.36400 39133 ft 482 kts 62°
2026-05-04 11:22 25.23840 -42.09036 39129 ft 483 kts 62°
2026-05-04 11:23 25.26401 -42.02179 39129 ft 483 kts 62°
2026-05-04 11:25 25.35326 -41.78194 39127 ft 483 kts 63°
2026-05-04 11:25 25.37876 -41.71315 39127 ft 484 kts 63°
2026-05-04 11:27 25.49322 -41.40296 39125 ft 484 kts 63°
2026-05-04 11:28 25.51859 -41.33389 39132 ft 484 kts 63°
2026-05-04 11:28 25.54394 -41.26477 39123 ft 485 kts 63°
2026-05-04 11:29 25.56925 -41.19561 39118 ft 484 kts 63°
2026-05-04 11:29 25.59451 -41.12647 39122 ft 484 kts 63°
2026-05-04 11:33 25.76638 -40.65298 39116 ft 485 kts 63°
2026-05-04 11:33 25.79145 -40.58344 39119 ft 485 kts 63°
2026-05-04 11:34 25.81648 -40.51390 39117 ft 485 kts 63°
2026-05-04 11:34 25.84147 -40.44434 39107 ft 485 kts 63°
2026-05-04 11:35 25.86648 -40.37462 39110 ft 486 kts 63°
2026-05-04 11:35 25.89144 -40.30487 39125 ft 486 kts 63°
2026-05-04 11:36 25.91638 -40.23509 39116 ft 486 kts 63°
2026-05-04 11:36 25.94133 -40.16516 39113 ft 487 kts 63°
2026-05-04 11:37 25.96627 -40.09513 39113 ft 487 kts 63°
2026-05-04 11:37 25.99119 -40.02507 39116 ft 487 kts 63°
2026-05-04 11:38 26.02125 -39.95823 39111 ft 482 kts 56°
2026-05-04 11:38 26.05380 -39.89301 39111 ft 482 kts 55°
2026-05-04 11:39 26.08674 -39.82802 39108 ft 482 kts 55°
2026-05-04 11:41 26.20159 -39.59984 39108 ft 483 kts 56°
2026-05-04 11:41 26.23413 -39.53488 39109 ft 484 kts 56°
2026-05-04 11:42 26.26688 -39.46941 39103 ft 484 kts 56°
2026-05-04 11:42 26.29982 -39.40345 39105 ft 484 kts 56°
2026-05-04 11:43 26.33256 -39.33780 39114 ft 484 kts 56°
2026-05-04 11:43 26.36501 -39.27263 39100 ft 484 kts 56°
2026-05-04 11:44 26.39770 -39.20690 39099 ft 485 kts 56°
2026-05-04 11:44 26.43036 -39.14113 39099 ft 485 kts 56°
2026-05-04 11:45 26.46301 -39.07528 39099 ft 485 kts 56°
2026-05-04 11:45 26.49568 -39.00929 39093 ft 486 kts 56°
2026-05-04 11:46 26.52832 -38.94325 39097 ft 486 kts 56°
2026-05-04 11:46 26.56092 -38.87720 39091 ft 486 kts 56°
2026-05-04 11:47 26.59351 -38.81105 39092 ft 486 kts 56°
2026-05-04 11:47 26.62605 -38.74492 39091 ft 486 kts 56°
2026-05-04 11:48 26.65857 -38.67873 39092 ft 486 kts 56°
2026-05-04 11:48 26.69110 -38.61243 39086 ft 487 kts 56°
2026-05-04 11:49 26.72366 -38.54597 39088 ft 488 kts 56°
2026-05-04 11:49 26.75622 -38.47940 39089 ft 488 kts 56°
2026-05-04 11:50 26.78873 -38.41281 39079 ft 488 kts 56°
2026-05-04 11:50 26.82129 -38.34605 39093 ft 489 kts 56°
2026-05-04 11:51 26.85388 -38.27911 39080 ft 489 kts 56°
2026-05-04 11:51 26.88621 -38.21259 39085 ft 489 kts 56°
2026-05-04 11:52 26.91871 -38.14561 39081 ft 490 kts 56°
2026-05-04 11:52 26.95127 -38.07845 39076 ft 491 kts 56°
2026-05-04 11:53 26.98379 -38.01123 39080 ft 491 kts 56°
2026-05-04 11:53 27.01629 -37.94395 39095 ft 491 kts 56°
2026-05-04 11:55 27.14647 -37.67340 39077 ft 494 kts 55°
2026-05-04 11:56 27.17906 -37.60541 39071 ft 495 kts 55°
2026-05-04 11:56 27.21164 -37.53733 39072 ft 495 kts 55°
2026-05-04 11:57 27.24420 -37.46917 39090 ft 495 kts 55°
2026-05-04 11:57 27.27679 -37.40089 39071 ft 497 kts 55°
2026-05-04 11:58 27.30941 -37.33239 39068 ft 497 kts 55°
2026-05-04 11:58 27.34200 -37.26383 39067 ft 497 kts 55°
2026-05-04 11:59 27.37459 -37.19517 39068 ft 497 kts 55°
2026-05-04 11:59 27.40715 -37.12646 39063 ft 498 kts 55°
2026-05-04 12:00 27.43971 -37.05765 39064 ft 498 kts 55°
2026-05-04 12:00 27.47222 -36.98882 39098 ft 498 kts 55°
2026-05-04 12:01 27.50474 -36.91988 39059 ft 499 kts 54°
2026-05-04 12:02 27.61811 -36.67859 39059 ft 499 kts 54°
2026-05-04 12:03 27.65055 -36.60932 39057 ft 499 kts 54°
2026-05-04 12:03 27.68295 -36.53999 39053 ft 499 kts 54°
2026-05-04 12:04 27.71531 -36.47063 39053 ft 499 kts 54°
2026-05-04 12:04 27.74755 -36.40137 39054 ft 497 kts 54°
2026-05-04 12:05 27.77969 -36.33226 39055 ft 497 kts 54°
2026-05-04 12:05 27.81177 -36.26318 39055 ft 497 kts 54°
2026-05-04 12:06 27.84384 -36.19402 39047 ft 498 kts 53°
2026-05-04 12:06 27.87593 -36.12469 39046 ft 498 kts 54°
2026-05-04 12:07 27.90798 -36.05529 39057 ft 498 kts 54°
2026-05-04 12:07 27.94001 -35.98583 39057 ft 498 kts 53°
2026-05-04 12:08 27.97205 -35.91625 39045 ft 499 kts 53°
2026-05-04 12:08 28.00407 -35.84661 39045 ft 499 kts 53°
2026-05-04 12:09 28.03606 -35.77690 39045 ft 499 kts 53°
2026-05-04 12:09 28.06800 -35.70717 39045 ft 498 kts 53°
2026-05-04 12:10 28.09960 -35.63803 39042 ft 498 kts 53°
2026-05-04 12:10 28.13143 -35.56831 39042 ft 498 kts 53°
2026-05-04 12:11 28.16319 -35.49863 39069 ft 498 kts 53°
2026-05-04 12:11 28.19484 -35.42904 39039 ft 496 kts 53°
2026-05-04 12:12 28.22636 -35.35964 39040 ft 495 kts 53°
2026-05-04 12:12 28.25786 -35.29018 39034 ft 495 kts 53°
2026-05-04 12:14 28.38316 -35.01269 39034 ft 493 kts 53°
2026-05-04 12:15 28.41435 -34.94331 39031 ft 493 kts 53°
2026-05-04 12:15 28.44548 -34.87395 39035 ft 493 kts 53°
2026-05-04 12:16 28.47654 -34.80464 39030 ft 492 kts 53°
2026-05-04 12:16 28.50759 -34.73521 39034 ft 492 kts 53°
2026-05-04 12:17 28.53860 -34.66578 39031 ft 493 kts 54°
2026-05-04 12:17 28.56438 -34.60795 39030 ft 493 kts 54°
2026-05-04 12:18 28.59538 -34.53830 39026 ft 493 kts 54°
2026-05-04 12:18 28.62631 -34.46867 39055 ft 493 kts 55°
2026-05-04 12:19 28.66227 -34.38761 39031 ft 494 kts 55°
2026-05-04 12:19 28.68817 -34.32911 39027 ft 494 kts 55°
2026-05-04 12:20 28.71906 -34.25920 39025 ft 494 kts 55°
2026-05-04 12:20 28.74992 -34.18928 39023 ft 494 kts 56°
2026-05-04 12:21 28.78078 -34.11922 39023 ft 495 kts 56°
2026-05-04 12:21 28.81160 -34.04911 39024 ft 495 kts 56°
2026-05-04 12:22 28.84243 -33.97886 39023 ft 495 kts 56°
2026-05-04 12:22 28.87298 -33.90911 39024 ft 495 kts 56°
2026-05-04 12:23 28.90372 -33.83883 39023 ft 495 kts 56°
2026-05-04 12:23 28.93440 -33.76854 39023 ft 495 kts 56°
2026-05-04 12:24 28.96507 -33.69818 39031 ft 495 kts 56°
2026-05-04 12:24 28.99575 -33.62770 39023 ft 496 kts 57°
2026-05-04 12:25 29.02645 -33.55698 39022 ft 497 kts 57°
2026-05-04 12:25 29.05711 -33.48623 39022 ft 497 kts 57°
2026-05-04 12:26 29.08775 -33.41542 39053 ft 497 kts 57°
2026-05-04 12:26 29.11834 -33.34460 39018 ft 496 kts 58°
2026-05-04 12:27 29.14884 -33.27383 39018 ft 496 kts 58°
2026-05-04 12:27 29.17932 -33.20298 39018 ft 496 kts 58°
2026-05-04 12:28 29.20976 -33.13214 39024 ft 496 kts 58°
2026-05-04 12:28 29.24015 -33.06124 39018 ft 497 kts 59°
2026-05-04 12:29 29.27057 -32.99017 39024 ft 497 kts 59°
2026-05-04 12:29 29.30092 -32.91911 39023 ft 497 kts 59°
2026-05-04 12:30 29.33126 -32.84799 39022 ft 497 kts 59°
2026-05-04 12:30 29.36159 -32.77673 39018 ft 497 kts 59°
2026-05-04 12:31 29.39188 -32.70543 39018 ft 497 kts 59°
2026-05-04 12:31 29.42213 -32.63408 39018 ft 497 kts 59°
2026-05-04 12:32 29.46747 -32.52694 39018 ft 498 kts 60°
2026-05-04 12:33 29.49747 -32.45586 39022 ft 498 kts 60°
2026-05-04 12:33 29.52762 -32.38427 39021 ft 498 kts 60°
2026-05-04 12:34 29.55793 -32.31221 39019 ft 498 kts 60°
2026-05-04 12:34 29.58782 -32.24100 39018 ft 498 kts 60°
2026-05-04 12:35 29.61783 -32.16934 39019 ft 498 kts 60°
2026-05-04 12:35 29.64783 -32.09760 39020 ft 498 kts 60°
2026-05-04 12:36 29.67778 -32.02587 39016 ft 498 kts 61°
2026-05-04 12:36 29.70770 -31.95403 39019 ft 498 kts 61°
2026-05-04 12:37 29.73754 -31.88225 39031 ft 498 kts 61°
2026-05-04 12:37 29.76738 -31.81035 39018 ft 497 kts 61°
2026-05-04 12:38 29.79715 -31.73849 39024 ft 497 kts 62°
2026-05-04 12:38 29.82680 -31.66677 39022 ft 495 kts 62°
2026-05-04 12:39 29.85635 -31.59515 39022 ft 495 kts 62°
2026-05-04 12:39 29.88586 -31.52352 39018 ft 495 kts 62°
2026-05-04 12:40 29.91534 -31.45181 39021 ft 495 kts 62°
2026-05-04 12:40 29.94479 -31.38003 39019 ft 495 kts 62°
2026-05-04 12:41 29.97418 -31.30825 39023 ft 495 kts 62°
2026-05-04 12:41 30.00354 -31.23642 39020 ft 495 kts 62°
2026-05-04 12:42 30.03286 -31.16454 39024 ft 495 kts 62°
2026-05-04 12:42 30.06218 -31.09255 39025 ft 495 kts 62°
2026-05-04 12:43 30.09144 -31.02055 39024 ft 495 kts 62°
2026-05-04 12:43 30.12064 -30.94854 39029 ft 495 kts 62°
2026-05-04 12:44 30.14982 -30.87646 39026 ft 495 kts 63°
2026-05-04 12:44 30.17897 -30.80431 39026 ft 495 kts 63°
2026-05-04 12:45 30.20788 -30.73262 39021 ft 495 kts 63°
2026-05-04 12:45 30.23695 -30.66038 39027 ft 495 kts 63°
2026-05-04 12:46 30.26600 -30.58807 39026 ft 496 kts 63°
2026-05-04 12:46 30.29501 -30.51570 39027 ft 496 kts 63°
2026-05-04 12:47 30.32398 -30.44330 39027 ft 496 kts 63°
2026-05-04 12:47 30.35296 -30.37073 39030 ft 496 kts 63°
2026-05-04 12:48 30.38186 -30.29820 39085 ft 497 kts 63°
2026-05-04 12:48 30.39636 -30.26176 39251 ft 497 kts 63°
2026-05-04 12:48 30.41080 -30.22544 39402 ft 497 kts 63°
2026-05-04 12:48 30.42524 -30.18907 39540 ft 497 kts 63°
2026-05-04 12:49 30.43965 -30.15275 39672 ft 497 kts 63°
2026-05-04 12:49 30.45409 -30.11632 39804 ft 497 kts 63°
2026-05-04 12:49 30.46849 -30.07996 39923 ft 497 kts 64°
2026-05-04 12:49 30.48292 -30.04347 40024 ft 498 kts 64°
2026-05-04 12:50 30.49772 -30.00728 40212 ft 495 kts 60°
2026-05-04 12:50 30.51448 -29.97253 40379 ft 494 kts 58°
2026-05-04 12:50 30.53168 -29.93812 40501 ft 494 kts 58°
2026-05-04 12:51 30.56673 -29.86950 40681 ft 494 kts 57°
2026-05-04 12:51 30.60195 -29.80098 40869 ft 495 kts 58°
2026-05-04 12:52 30.63717 -29.73219 41014 ft 496 kts 58°
2026-05-04 12:52 30.67229 -29.66329 41031 ft 496 kts 58°
2026-05-04 12:53 30.70738 -29.59429 41032 ft 496 kts 58°
2026-05-04 12:53 30.74218 -29.52575 41034 ft 496 kts 58°
2026-05-04 12:54 30.77718 -29.45672 41031 ft 496 kts 58°
2026-05-04 12:54 30.81215 -29.38759 41031 ft 496 kts 58°
2026-05-04 12:55 30.84707 -29.31845 41031 ft 496 kts 58°
2026-05-04 12:55 30.88197 -29.24924 41032 ft 496 kts 58°
2026-05-04 12:56 30.91686 -29.17992 41032 ft 496 kts 58°
2026-05-04 12:56 30.95168 -29.11060 41031 ft 496 kts 58°
2026-05-04 12:57 30.98650 -29.04118 41032 ft 496 kts 59°
2026-05-04 12:57 31.02119 -28.97187 41032 ft 495 kts 59°
2026-05-04 12:58 31.05586 -28.90249 41031 ft 495 kts 59°
2026-05-04 12:58 31.09043 -28.83318 41031 ft 494 kts 59°
2026-05-04 12:59 31.12499 -28.76378 41031 ft 494 kts 59°
2026-05-04 12:59 31.15949 -28.69435 41031 ft 494 kts 59°
2026-05-04 13:00 31.19395 -28.62490 41033 ft 495 kts 59°
2026-05-04 13:00 31.22844 -28.55525 41034 ft 495 kts 59°
2026-05-04 13:01 31.26265 -28.48605 41036 ft 495 kts 59°
2026-05-04 13:01 31.29707 -28.41629 41034 ft 495 kts 59°
2026-05-04 13:02 31.33142 -28.34652 41034 ft 495 kts 59°
2026-05-04 13:02 31.36577 -28.27667 41034 ft 495 kts 59°
2026-05-04 13:03 31.40005 -28.20679 41035 ft 495 kts 59°
2026-05-04 13:03 31.43432 -28.13684 41034 ft 495 kts 59°
2026-05-04 13:04 31.46852 -28.06687 41037 ft 495 kts 59°
2026-05-04 13:04 31.50270 -27.99686 41038 ft 495 kts 59°
2026-05-04 13:05 31.53686 -27.92673 41042 ft 495 kts 59°
2026-05-04 13:05 31.57097 -27.85658 41042 ft 496 kts 59°
2026-05-04 13:06 31.60506 -27.78633 41040 ft 495 kts 59°
2026-05-04 13:06 31.63915 -27.71596 41041 ft 496 kts 59°
2026-05-04 13:07 31.66750 -27.65735 41039 ft 497 kts 59°
2026-05-04 13:07 31.70157 -27.58674 41041 ft 497 kts 59°
2026-05-04 13:08 31.73563 -27.51604 41038 ft 497 kts 59°
2026-05-04 13:08 31.76965 -27.44532 41043 ft 497 kts 60°
2026-05-04 13:09 31.80363 -27.37453 41044 ft 497 kts 60°
2026-05-04 13:09 31.83756 -27.30370 41041 ft 497 kts 59°
2026-05-04 13:10 31.87149 -27.23275 41051 ft 497 kts 60°
2026-05-04 13:10 31.90534 -27.16184 41053 ft 497 kts 60°
2026-05-04 13:11 31.93924 -27.09071 41053 ft 498 kts 60°
2026-05-04 13:11 31.97300 -27.01969 41048 ft 496 kts 60°
2026-05-04 13:12 32.00644 -26.94923 41054 ft 496 kts 60°
2026-05-04 13:12 32.04007 -26.87822 41058 ft 496 kts 60°
2026-05-04 13:13 32.07371 -26.80709 41059 ft 498 kts 60°
2026-05-04 13:13 32.10744 -26.73559 41058 ft 499 kts 60°
2026-05-04 13:14 32.14114 -26.66403 41056 ft 499 kts 60°
2026-05-04 13:14 32.17478 -26.59245 41053 ft 498 kts 60°
2026-05-04 13:15 32.20840 -26.52080 41065 ft 500 kts 60°
2026-05-04 13:15 32.24212 -26.44879 41070 ft 502 kts 61°
2026-05-04 13:16 32.27584 -26.37662 41062 ft 502 kts 61°
2026-05-04 13:16 32.30934 -26.30480 41063 ft 502 kts 61°
2026-05-04 13:17 32.34301 -26.23248 41070 ft 502 kts 61°
2026-05-04 13:17 32.37668 -26.16001 41072 ft 503 kts 61°
2026-05-04 13:18 32.41029 -26.08749 41080 ft 502 kts 61°
2026-05-04 13:18 32.44373 -26.01522 41075 ft 500 kts 61°
2026-05-04 13:19 32.47710 -25.94298 41074 ft 500 kts 61°
2026-05-04 13:19 32.51049 -25.87054 41080 ft 501 kts 61°
2026-05-04 13:20 32.54387 -25.79795 41077 ft 502 kts 61°
2026-05-04 13:20 32.57725 -25.72524 41078 ft 502 kts 61°
2026-05-04 13:21 32.61054 -25.65259 41082 ft 501 kts 61°
2026-05-04 13:21 32.64384 -25.57978 41087 ft 503 kts 61°
2026-05-04 13:22 32.67716 -25.50677 41090 ft 503 kts 61°
2026-05-04 13:22 32.71021 -25.43417 41087 ft 504 kts 62°
2026-05-04 13:23 32.74352 -25.36087 41094 ft 504 kts 62°
2026-05-04 13:23 32.77677 -25.28759 41098 ft 504 kts 62°
2026-05-04 13:24 32.80998 -25.21422 41090 ft 504 kts 62°
2026-05-04 13:24 32.84315 -25.14078 41093 ft 504 kts 62°
2026-05-04 13:25 32.89283 -25.03055 41094 ft 505 kts 62°
2026-05-04 13:25 32.92604 -24.95665 41101 ft 507 kts 62°
2026-05-04 13:26 32.95928 -24.88252 41110 ft 508 kts 62°
2026-05-04 13:26 32.99254 -24.80819 41109 ft 509 kts 62°
2026-05-04 13:27 33.02579 -24.73375 41107 ft 509 kts 62°
2026-05-04 13:27 33.05900 -24.65926 41110 ft 509 kts 62°
2026-05-04 13:28 33.09215 -24.58470 41113 ft 508 kts 62°
2026-05-04 13:28 33.12521 -24.51022 41117 ft 508 kts 62°
2026-05-04 13:29 33.15824 -24.43566 41118 ft 508 kts 62°
2026-05-04 13:29 33.19122 -24.36102 41118 ft 508 kts 62°
2026-05-04 13:30 33.22399 -24.28673 41123 ft 509 kts 62°
2026-05-04 13:30 33.25699 -24.21176 41128 ft 510 kts 62°
2026-05-04 13:31 33.28994 -24.13675 41123 ft 510 kts 63°
2026-05-04 13:31 33.32282 -24.06173 41141 ft 509 kts 63°
2026-05-04 13:32 33.35562 -23.98673 41131 ft 509 kts 63°
2026-05-04 13:32 33.38837 -23.91167 41132 ft 509 kts 63°
2026-05-04 13:33 33.42112 -23.83646 41139 ft 510 kts 63°
2026-05-04 13:33 33.45382 -23.76122 41139 ft 509 kts 63°
2026-05-04 13:34 33.48648 -23.68591 41139 ft 509 kts 63°
2026-05-04 13:34 33.51905 -23.61062 41141 ft 509 kts 63°
2026-05-04 13:35 33.56789 -23.49745 41144 ft 509 kts 63°
2026-05-04 13:36 33.60037 -23.42199 41146 ft 509 kts 63°
2026-05-04 13:36 33.63283 -23.34641 41148 ft 510 kts 63°
2026-05-04 13:37 33.66525 -23.27072 41151 ft 510 kts 63°
2026-05-04 13:37 33.69763 -23.19501 41151 ft 510 kts 63°
2026-05-04 13:38 33.72996 -23.11920 41156 ft 510 kts 63°
2026-05-04 13:38 33.76204 -23.04386 41156 ft 510 kts 63°
2026-05-04 13:39 33.79424 -22.96805 41157 ft 509 kts 63°
2026-05-04 13:39 33.82643 -22.89210 41157 ft 509 kts 63°
2026-05-04 13:40 33.85855 -22.81614 41156 ft 509 kts 63°
2026-05-04 13:40 33.89061 -22.74017 41162 ft 510 kts 63°
2026-05-04 13:41 33.92270 -22.66395 41158 ft 510 kts 63°
2026-05-04 13:41 33.95475 -22.58767 41160 ft 510 kts 63°
2026-05-04 13:42 34.00270 -22.47321 41161 ft 510 kts 64°
2026-05-04 13:42 34.03463 -22.39679 41164 ft 511 kts 64°
2026-05-04 13:43 34.06659 -22.32013 41163 ft 511 kts 64°
2026-05-04 13:43 34.09848 -22.24345 41166 ft 511 kts 64°
2026-05-04 13:44 34.13032 -22.16672 41166 ft 511 kts 64°